TimeEST,TemperatureF,Dew PointF,Humidity,Sea Level PressureIn,VisibilityMPH,Wind Direction,Wind SpeedMPH,Gust SpeedMPH,PrecipitationIn,Events,Conditions,WindDirDegrees,DateUTC
12:15 AM,-2.2,-11.7,64,30.25,7.0,West,10.4,18.4,N/A,,Overcast,280,2013-01-25 05:15:00
12:35 AM,-1.8,-11.2,64,30.25,10.0,West,5.8,-,N/A,,Overcast,270,2013-01-25 05:35:00
12:55 AM,-1.5,-10.7,65,30.25,7.0,Calm,Calm,-,N/A,,Overcast,0,2013-01-25 05:55:00
1:15 AM,-1.5,-10.3,66,30.25,5.0,Calm,Calm,-,N/A,,Haze,0,2013-01-25 06:15:00
1:35 AM,-1.3,-10.3,66,30.25,7.0,WNW,9.2,-,N/A,,Overcast,290,2013-01-25 06:35:00
1:55 AM,-0.9,-9.8,66,30.26,10.0,WSW,3.5,-,N/A,,Overcast,250,2013-01-25 06:55:00
2:15 AM,-0.9,-11.2,62,30.26,10.0,West,11.5,16.1,N/A,,Overcast,270,2013-01-25 07:15:00
2:55 AM,-1.3,-8.7,71,30.26,3.0,West,3.5,-,N/A,,Haze,270,2013-01-25 07:55:00
3:15 AM,-1.5,-9.4,69,30.26,4.0,WSW,5.8,-,N/A,,Haze,240,2013-01-25 08:15:00
3:55 AM,-1.8,-10.7,66,30.27,10.0,Calm,Calm,-,N/A,,Overcast,0,2013-01-25 08:55:00
4:15 AM,-2.2,-10.3,68,30.26,5.0,Calm,Calm,-,N/A,,Haze,0,2013-01-25 09:15:00
4:35 AM,-2.2,-11.2,66,30.25,10.0,NW,5.8,-,N/A,,Overcast,310,2013-01-25 09:35:00
4:55 AM,-2.2,-10.3,68,30.25,5.0,Calm,Calm,-,N/A,,Haze,0,2013-01-25 09:55:00
5:15 AM,-2.2,-10.1,69,30.25,4.0,WSW,4.6,-,N/A,,Haze,250,2013-01-25 10:15:00
5:55 AM,-3.3,-10.3,72,30.25,4.0,Calm,Calm,-,N/A,,Haze,0,2013-01-25 10:55:00
6:15 AM,-4.4,-11.2,72,30.25,7.0,Calm,Calm,-,N/A,,Overcast,0,2013-01-25 11:15:00
6:35 AM,-4.4,-11.0,73,30.25,5.0,Calm,Calm,-,N/A,,Haze,0,2013-01-25 11:35:00
6:55 AM,-4.9,-10.8,76,30.26,4.0,East,3.5,-,N/A,,Haze,90,2013-01-25 11:55:00
7:15 AM,-4.9,-10.7,76,30.25,3.0,East,4.6,-,N/A,Snow,Light Snow,90,2013-01-25 12:15:00
7:35 AM,-5.6,-11.7,75,30.26,3.0,Calm,Calm,-,N/A,,Haze,0,2013-01-25 12:35:00
7:55 AM,-5.1,-11.0,76,30.26,4.0,Calm,Calm,-,N/A,,Haze,0,2013-01-25 12:55:00
8:15 AM,-3.6,-10.3,73,30.27,10.0,Calm,Calm,-,N/A,,Clear,0,2013-01-25 13:15:00
8:35 AM,-2.6,-10.1,70,30.27,7.0,Calm,Calm,-,N/A,,Clear,0,2013-01-25 13:35:00
8:55 AM,-2.4,-10.3,69,30.26,10.0,Calm,Calm,-,N/A,,Clear,0,2013-01-25 13:55:00
9:15 AM,-1.3,-10.3,66,30.26,10.0,Calm,Calm,-,N/A,,Clear,0,2013-01-25 14:15:00
9:35 AM,-0.9,-10.5,64,30.26,10.0,Calm,Calm,-,N/A,,Clear,0,2013-01-25 14:35:00
9:55 AM,-0.0,-10.1,63,30.25,10.0,ESE,3.5,-,N/A,,Clear,110,2013-01-25 14:55:00
10:15 AM,0.7,-10.5,59,30.26,10.0,ESE,3.5,-,N/A,,Clear,120,2013-01-25 15:15:00
10:35 AM,1.6,-9.9,59,30.25,10.0,East,3.5,-,N/A,,Clear,100,2013-01-25 15:35:00
10:55 AM,3.2,-9.6,55,30.24,10.0,Calm,Calm,-,N/A,,Clear,0,2013-01-25 15:55:00
11:15 AM,2.5,-9.8,57,30.23,10.0,NNE,3.5,-,N/A,,Clear,20,2013-01-25 16:15:00
11:35 AM,3.6,-9.8,54,30.21,10.0,NNE,3.5,-,N/A,,Clear,20,2013-01-25 16:35:00
11:55 AM,3.7,-9.6,54,30.21,10.0,Calm,Calm,-,N/A,,Clear,0,2013-01-25 16:55:00
12:15 PM,3.2,-9.4,56,30.20,10.0,NE,4.6,-,N/A,,Clear,50,2013-01-25 17:15:00
12:35 PM,3.9,-9.0,55,30.19,10.0,ENE,3.5,-,N/A,,Clear,70,2013-01-25 17:35:00
12:55 PM,4.1,-9.4,54,30.17,10.0,Calm,Calm,-,N/A,,Clear,0,2013-01-25 17:55:00
1:15 PM,4.3,-8.9,55,30.17,10.0,NE,3.5,-,N/A,,Clear,40,2013-01-25 18:15:00
1:35 PM,4.8,-9.2,52,30.16,10.0,Calm,Calm,-,N/A,,Clear,0,2013-01-25 18:35:00
1:55 PM,5.9,-8.9,51,30.16,10.0,Calm,Calm,-,N/A,,Clear,0,2013-01-25 18:55:00
2:15 PM,6.4,-8.3,51,30.15,10.0,Calm,Calm,-,N/A,,Clear,0,2013-01-25 19:15:00
2:35 PM,6.1,-8.5,51,30.14,10.0,NNE,4.6,-,N/A,,Clear,30,2013-01-25 19:35:00
2:55 PM,6.3,-8.1,52,30.14,10.0,NNE,3.5,-,N/A,,Clear,20,2013-01-25 19:55:00
3:15 PM,5.7,-8.0,53,30.13,10.0,North,3.5,-,N/A,,Clear,360,2013-01-25 20:15:00
3:35 PM,5.4,-8.5,53,30.13,10.0,NNW,3.5,-,N/A,,Clear,340,2013-01-25 20:35:00
3:55 PM,4.6,-8.7,54,30.13,10.0,Calm,Calm,-,N/A,,Scattered Clouds,0,2013-01-25 20:55:00
4:15 PM,5.0,-8.7,53,30.12,10.0,Calm,Calm,-,N/A,,Mostly Cloudy,0,2013-01-25 21:15:00
4:55 PM,4.8,-8.5,54,30.12,10.0,Calm,Calm,-,N/A,,Scattered Clouds,0,2013-01-25 21:55:00
5:15 PM,4.8,-7.8,56,30.12,10.0,NW,3.5,-,N/A,,Mostly Cloudy,310,2013-01-25 22:15:00
5:55 PM,5.0,-7.2,57,30.11,10.0,Calm,Calm,-,N/A,,Overcast,0,2013-01-25 22:55:00
6:15 PM,5.0,-6.9,58,30.11,10.0,East,3.5,-,N/A,,Overcast,100,2013-01-25 23:15:00
6:35 PM,5.0,-7.4,57,30.10,10.0,ENE,3.5,-,N/A,,Overcast,70,2013-01-25 23:35:00
6:55 PM,5.0,-6.0,61,30.10,10.0,Calm,Calm,-,N/A,,Overcast,0,2013-01-25 23:55:00
7:15 PM,5.0,-6.0,61,30.09,10.0,Calm,Calm,-,N/A,,Overcast,0,2013-01-26 00:15:00
7:35 PM,5.4,-6.5,58,30.09,10.0,Calm,Calm,-,N/A,,Overcast,0,2013-01-26 00:35:00
7:55 PM,4.8,-4.9,64,30.08,10.0,Calm,Calm,-,N/A,,Overcast,0,2013-01-26 00:55:00
8:15 PM,4.8,-5.3,63,30.08,10.0,Calm,Calm,-,N/A,,Overcast,0,2013-01-26 01:15:00
8:55 PM,4.1,-6.5,61,30.07,10.0,NNW,3.5,-,N/A,,Overcast,330,2013-01-26 01:55:00
9:15 PM,3.9,-6.0,64,30.07,10.0,Calm,Calm,-,N/A,,Overcast,0,2013-01-26 02:15:00
9:35 PM,4.1,-5.8,64,30.06,10.0,Calm,Calm,-,N/A,,Overcast,0,2013-01-26 02:35:00
9:55 PM,4.1,-4.9,66,30.06,10.0,Calm,Calm,-,N/A,,Overcast,0,2013-01-26 02:55:00
10:15 PM,4.1,-6.0,63,30.05,10.0,Calm,Calm,-,N/A,,Overcast,0,2013-01-26 03:15:00
10:35 PM,3.6,-5.3,67,30.05,10.0,Calm,Calm,-,N/A,,Overcast,0,2013-01-26 03:35:00
10:55 PM,3.7,-5.6,65,30.05,10.0,Calm,Calm,-,N/A,,Overcast,0,2013-01-26 03:55:00
11:15 PM,3.9,-4.4,69,30.05,10.0,Calm,Calm,-,N/A,,Overcast,0,2013-01-26 04:15:00
11:35 PM,4.1,-4.4,68,30.05,10.0,Calm,Calm,-,N/A,,Overcast,0,2013-01-26 04:35:00
11:55 PM,4.1,-3.8,70,30.05,4.0,Calm,Calm,-,N/A,,Haze,0,2013-01-26 04:55:00